Location: Fisheating Creek Campgrounds
(26.9333°N, 81.3167°W)
Time: 01:29:40
(UTC-05:00)

Cosmos 2221 Rocket - Visible Passes

Search period start: 21 November 2017 00:00
Search period end: 01 December 2017 00:00
Orbit: 620 x 649 km, 82.5° (Epoch: 20 November)

Date Brightness Start Highest point End Pass type
(mag) Time Alt. Az. Time Alt. Az. Time Alt. Az.
21 Nov 4.0 05:58:28 10° N 06:02:56 67° E 06:07:24 10° SSE visible
21 Nov 3.5 18:24:23 10° S 18:28:44 64° E 18:33:06 10° NNE visible
22 Nov 3.8 06:20:45 10° NNW 06:25:04 49° W 06:29:25 10° SSW visible
22 Nov 4.5 18:46:37 10° SSW 18:50:54 50° W 18:55:11 10° N visible
23 Nov 6.1 05:05:39 10° NNE 05:09:07 22° E 05:12:36 10° SE visible
23 Nov 6.1 19:09:51 10° SW 19:13:11 21° W 19:16:32 10° NNW visible
24 Nov 4.5 05:27:02 10° N 05:31:24 51° E 05:35:47 10° SSE visible
24 Nov 3.8 17:52:59 10° SSE 17:57:13 49° E 18:01:28 10° NNE visible
25 Nov 3.6 05:49:07 10° NNW 05:53:35 65° W 05:58:03 10° S visible
25 Nov 4.0 18:15:00 10° SSW 18:19:21 66° W 18:23:44 10° N visible
26 Nov 6.3 04:34:35 10° NE 04:37:34 17° ENE 04:40:31 10° ESE visible
26 Nov 4.6 06:11:53 10° NNW 06:15:38 27° W 06:19:26 10° SSW visible
26 Nov 5.8 18:37:53 10° SW 18:41:36 27° W 18:45:20 10° NNW visible
27 Nov 4.9 04:55:47 11° NNE 04:59:52 39° E 05:04:06 10° SSE visible
27 Nov 6.7 19:02:32 10° W 19:03:58 11° WNW 19:05:26 10° WNW visible
28 Nov 3.5 05:19:12 22° N 05:22:04 84° W 05:26:36 10° S visible
29 Nov 6.5 04:05:02 13° ENE 04:05:59 14° ENE 04:08:13 10° ESE visible
29 Nov 4.2 05:42:36 26° NW 05:44:10 34° W 05:48:16 10° SSW visible
29 Nov 5.4 18:06:03 10° SSW 18:10:02 34° W 18:14:03 10° NNW visible
30 Nov 5.3 04:28:24 31° E 04:28:24 31° E 04:32:20 10° SE visible
30 Nov 5.2 06:05:57 15° W 06:06:10 15° W 06:08:42 10° WSW visible
30 Nov 6.5 18:29:54 10° WSW 18:32:23 15° WNW 18:34:53 10° NW visible
